Time,TemperatureF,DewpointF,PressureIn,WindDirection,WindDirectionDegrees,WindSpeedMPH,WindSpeedGustMPH,Humidity,HourlyPrecipIn,Conditions,Clouds,dailyrainin,SoftwareType,DateUTC
2013-09-05 00:13:00,65.0,64.0,30.22,WSW,239,0.0,2.0,95,0.00,,,0.00,,2013-09-05 04:13:00,
2013-09-05 00:24:00,65.0,63.0,30.22,SW,233,2.0,3.0,94,0.00,,,0.00,,2013-09-05 04:24:00,
2013-09-05 00:44:00,65.0,64.0,30.22,SW,231,1.0,2.0,95,0.00,,,0.00,,2013-09-05 04:44:00,
2013-09-05 00:53:00,65.0,64.0,30.21,SW,231,0.0,1.0,95,0.00,,,0.00,,2013-09-05 04:53:00,
2013-09-05 01:13:00,64.0,63.0,30.22,SW,231,0.0,0.0,95,0.00,,,0.00,,2013-09-05 05:13:00,
2013-09-05 01:23:00,64.0,63.0,30.21,SW,231,0.0,0.0,96,0.00,,,0.00,,2013-09-05 05:23:00,
2013-09-05 01:43:00,64.0,63.0,30.21,SW,231,0.0,1.0,96,0.00,,,0.00,,2013-09-05 05:43:00,
2013-09-05 01:52:00,64.0,63.0,30.22,NE,47,0.0,1.0,96,0.00,,,0.00,,2013-09-05 05:52:00,
2013-09-05 02:13:00,64.0,63.0,30.22,ENE,58,1.0,2.0,96,0.00,,,0.00,,2013-09-05 06:13:00,
2013-09-05 02:22:00,63.0,62.0,30.21,North,6,1.0,3.0,96,0.00,,,0.00,,2013-09-05 06:22:00,
2013-09-05 02:52:00,63.0,62.0,30.21,NE,43,1.0,2.0,95,0.00,,,0.00,,2013-09-05 06:52:00,
2013-09-05 03:12:00,64.0,63.0,30.20,ENE,60,0.0,2.0,95,0.00,,,0.00,,2013-09-05 07:12:00,
2013-09-05 03:23:00,63.0,61.0,30.20,NE,37,1.0,2.0,94,0.00,,,0.00,,2013-09-05 07:23:00,
2013-09-05 03:42:00,63.0,62.0,30.19,NE,40,2.0,3.0,95,0.00,,,0.00,,2013-09-05 07:42:00,
2013-09-05 03:52:00,63.0,62.0,30.18,NE,44,0.0,3.0,95,0.00,,,0.00,,2013-09-05 07:52:00,
2013-09-05 04:12:00,63.0,62.0,30.18,North,360,0.0,2.0,95,0.00,,,0.00,,2013-09-05 08:12:00,
2013-09-05 04:22:00,63.0,61.0,30.18,ENE,63,1.0,3.0,94,0.00,,,0.00,,2013-09-05 08:22:00,
2013-09-05 04:42:00,63.0,61.0,30.18,NE,53,2.0,4.0,94,0.00,,,0.00,,2013-09-05 08:42:00,
2013-09-05 04:52:00,63.0,62.0,30.18,NE,46,2.0,4.0,95,0.00,,,0.00,,2013-09-05 08:52:00,
2013-09-05 05:11:00,63.0,62.0,30.18,NE,50,2.0,4.0,95,0.00,,,0.00,,2013-09-05 09:11:00,
2013-09-05 05:22:00,63.0,61.0,30.18,NE,46,2.0,4.0,94,0.00,,,0.00,,2013-09-05 09:22:00,
2013-09-05 05:43:00,63.0,61.0,30.18,NE,37,2.0,5.0,93,0.00,,,0.00,,2013-09-05 09:43:00,
2013-09-05 05:53:00,63.0,61.0,30.18,NE,36,2.0,4.0,93,0.00,,,0.00,,2013-09-05 09:53:00,
2013-09-05 06:12:00,63.0,61.0,30.18,ENE,75,2.0,5.0,93,0.00,,,0.00,,2013-09-05 10:12:00,
2013-09-05 06:23:00,63.0,61.0,30.18,NE,40,3.0,4.0,92,0.00,,,0.00,,2013-09-05 10:23:00,
2013-09-05 06:43:00,63.0,61.0,30.19,NE,43,1.0,3.0,93,0.00,,,0.00,,2013-09-05 10:43:00,
2013-09-05 06:53:00,63.0,61.0,30.19,NE,54,2.0,3.0,92,0.00,,,0.00,,2013-09-05 10:53:00,
2013-09-05 07:12:00,63.0,61.0,30.20,NE,44,1.0,2.0,92,0.00,,,0.00,,2013-09-05 11:12:00,
2013-09-05 07:22:00,63.0,61.0,30.20,NE,36,1.0,4.0,92,0.00,,,0.00,,2013-09-05 11:22:00,
2013-09-05 07:42:00,63.0,60.0,30.21,ENE,60,3.0,4.0,91,0.00,,,0.00,,2013-09-05 11:42:00,
2013-09-05 07:52:00,63.0,60.0,30.21,ENE,60,2.0,4.0,91,0.00,,,0.00,,2013-09-05 11:52:00,
2013-09-05 08:13:00,63.0,60.0,30.21,NNE,27,2.0,3.0,91,0.00,,,0.00,,2013-09-05 12:13:00,
2013-09-05 08:22:00,62.0,60.0,30.22,ENE,64,2.0,3.0,92,0.00,,,0.00,,2013-09-05 12:22:00,
2013-09-05 08:42:00,62.0,60.0,30.22,NE,45,2.0,5.0,93,0.00,,,0.00,,2013-09-05 12:42:00,
2013-09-05 08:52:00,63.0,61.0,30.22,NE,50,3.0,4.0,93,0.00,,,0.00,,2013-09-05 12:52:00,
2013-09-05 09:12:00,62.0,60.0,30.22,NE,34,3.0,4.0,93,0.00,,,0.00,,2013-09-05 13:12:00,
2013-09-05 09:22:00,63.0,61.0,30.22,NE,36,2.0,4.0,93,0.00,,,0.00,,2013-09-05 13:22:00,
2013-09-05 09:53:00,64.0,62.0,30.23,NNE,19,1.0,2.0,92,0.00,,,0.00,,2013-09-05 13:53:00,
2013-09-05 10:12:00,65.0,63.0,30.23,NNE,13,1.0,3.0,92,0.00,,,0.00,,2013-09-05 14:12:00,
2013-09-05 10:22:00,65.0,62.0,30.23,NNW,331,1.0,5.0,89,0.00,,,0.00,,2013-09-05 14:22:00,
2013-09-05 10:42:00,66.0,63.0,30.23,NNE,13,0.0,3.0,89,0.00,,,0.00,,2013-09-05 14:42:00,
2013-09-05 10:52:00,66.0,62.0,30.24,NE,37,1.0,2.0,87,0.00,,,0.00,,2013-09-05 14:52:00,
2013-09-05 11:11:00,67.0,62.0,30.24,NW,304,0.0,2.0,85,0.00,,,0.00,,2013-09-05 15:11:00,
2013-09-05 11:22:00,68.0,62.0,30.24,West,263,0.0,2.0,82,0.00,,,0.00,,2013-09-05 15:22:00,
2013-09-05 11:44:00,68.0,61.0,30.24,NNW,332,0.0,2.0,78,0.00,,,0.00,,2013-09-05 15:44:00,
2013-09-05 11:54:00,69.0,61.0,30.24,WSW,255,0.0,3.0,75,0.00,,,0.00,,2013-09-05 15:54:00,
2013-09-05 12:13:00,70.0,62.0,30.24,WNW,300,0.0,2.0,75,0.00,,,0.00,,2013-09-05 16:13:00,
2013-09-05 12:24:00,71.0,61.0,30.24,NW,308,0.0,3.0,71,0.00,,,0.00,,2013-09-05 16:24:00,
2013-09-05 12:43:00,72.0,63.0,30.24,WSW,243,0.0,1.0,74,0.00,,,0.00,,2013-09-05 16:43:00,
2013-09-05 12:54:00,72.0,61.0,30.23,WSW,240,3.0,5.0,69,0.00,,,0.00,,2013-09-05 16:54:00,
2013-09-05 13:12:00,73.0,63.0,30.23,WNW,301,1.0,6.0,71,0.00,,,0.00,,2013-09-05 17:12:00,
2013-09-05 13:23:00,74.0,62.0,30.22,NW,308,3.0,4.0,67,0.00,,,0.00,,2013-09-05 17:23:00,
2013-09-05 13:43:00,73.0,61.0,30.22,WSW,238,2.0,5.0,67,0.00,,,0.00,,2013-09-05 17:43:00,
2013-09-05 13:52:00,75.0,66.0,30.22,WSW,237,3.0,6.0,73,0.00,,,0.00,,2013-09-05 17:52:00,
2013-09-05 14:12:00,75.0,65.0,30.22,WSW,248,3.0,5.0,71,0.00,,,0.00,,2013-09-05 18:12:00,
2013-09-05 14:22:00,75.0,65.0,30.22,SW,232,4.0,6.0,71,0.00,,,0.00,,2013-09-05 18:22:00,
2013-09-05 14:52:00,76.0,65.0,30.20,SW,226,3.0,5.0,70,0.00,,,0.00,,2013-09-05 18:52:00,
2013-09-05 15:11:00,75.0,66.0,30.21,WSW,243,3.0,6.0,73,0.00,,,0.00,,2013-09-05 19:11:00,
2013-09-05 15:22:00,75.0,67.0,30.20,NNW,328,1.0,6.0,76,0.00,,,0.00,,2013-09-05 19:22:00,
2013-09-05 15:42:00,76.0,67.0,30.20,West,262,3.0,5.0,74,0.00,,,0.00,,2013-09-05 19:42:00,
2013-09-05 15:52:00,76.0,66.0,30.19,SW,236,1.0,3.0,71,0.00,,,0.00,,2013-09-05 19:52:00,
2013-09-05 16:11:00,74.0,66.0,30.19,West,276,0.0,3.0,77,0.00,,,0.00,,2013-09-05 20:11:00,
2013-09-05 16:22:00,73.0,65.0,30.19,WNW,293,2.0,3.0,75,0.00,,,0.00,,2013-09-05 20:22:00,
2013-09-05 16:52:00,74.0,66.0,30.19,WSW,243,3.0,4.0,76,0.00,,,0.00,,2013-09-05 20:52:00,
2013-09-05 17:22:00,75.0,65.0,30.19,WSW,240,3.0,5.0,70,0.00,,,0.00,,2013-09-05 21:22:00,
2013-09-05 17:54:00,77.0,64.0,30.19,NW,307,2.0,5.0,65,0.00,,,0.00,,2013-09-05 21:54:00,
2013-09-05 18:13:00,77.0,66.0,30.19,WSW,255,1.0,4.0,69,0.00,,,0.00,,2013-09-05 22:13:00,
2013-09-05 18:24:00,75.0,64.0,30.19,WSW,246,2.0,5.0,69,0.00,,,0.00,,2013-09-05 22:24:00,
2013-09-05 18:53:00,73.0,63.0,30.19,SW,235,2.0,3.0,71,0.00,,,0.00,,2013-09-05 22:53:00,
2013-09-05 19:12:00,72.0,64.0,30.18,WSW,243,2.0,3.0,75,0.00,,,0.00,,2013-09-05 23:12:00,
2013-09-05 19:22:00,72.0,64.0,30.18,SW,236,1.0,2.0,77,0.00,,,0.00,,2013-09-05 23:22:00,
2013-09-05 19:53:00,71.0,62.0,30.18,WSW,240,1.0,2.0,74,0.00,,,0.00,,2013-09-05 23:53:00,
2013-09-05 20:12:00,70.0,63.0,30.18,SW,231,0.0,0.0,79,0.00,,,0.00,,2013-09-06 00:12:00,
2013-09-05 20:22:00,69.0,63.0,30.18,SE,141,0.0,0.0,82,0.00,,,0.00,,2013-09-06 00:22:00,
2013-09-05 20:42:00,68.0,63.0,30.19,SW,215,0.0,0.0,83,0.00,,,0.00,,2013-09-06 00:42:00,
2013-09-05 20:52:00,68.0,61.0,30.19,SE,142,0.0,0.0,78,0.00,,,0.00,,2013-09-06 00:52:00,
2013-09-05 21:11:00,68.0,59.0,30.20,ESE,103,0.0,0.0,74,0.00,,,0.00,,2013-09-06 01:11:00,
2013-09-05 21:22:00,68.0,61.0,30.21,ESE,102,0.0,0.0,78,0.00,,,0.00,,2013-09-06 01:22:00,
2013-09-05 21:42:00,67.0,60.0,30.21,East,101,0.0,0.0,79,0.00,,,0.00,,2013-09-06 01:42:00,
2013-09-05 21:52:00,67.0,61.0,30.22,ESE,102,0.0,0.0,81,0.00,,,0.00,,2013-09-06 01:52:00,
2013-09-05 22:12:00,67.0,60.0,30.22,East,101,0.0,0.0,79,0.00,,,0.00,,2013-09-06 02:12:00,
2013-09-05 22:22:00,66.0,61.0,30.22,East,100,0.0,0.0,85,0.00,,,0.00,,2013-09-06 02:22:00,
2013-09-05 22:42:00,67.0,62.0,30.22,East,100,0.0,0.0,84,0.00,,,0.00,,2013-09-06 02:42:00,
2013-09-05 22:52:00,67.0,63.0,30.23,East,98,0.0,0.0,88,0.00,,,0.00,,2013-09-06 02:52:00,
2013-09-05 23:11:00,66.0,61.0,30.23,East,97,0.0,0.0,84,0.00,,,0.00,,2013-09-06 03:11:00,
2013-09-05 23:22:00,66.0,62.0,30.22,East,98,0.0,0.0,88,0.00,,,0.00,,2013-09-06 03:22:00,
2013-09-05 23:55:00,66.0,62.0,30.23,East,98,0.0,0.0,88,0.00,,,0.00,,2013-09-06 03:55:00,